Weather History for PHNY - March, 2014

Change the Weather History Date:

Thursday, March 27, 2014

  Actual Average Record
Temperature  
Mean Temperature 73 °F -  
Max Temperature 82 °F 79 °F 82 °F (2014)
Min Temperature 64 °F 60 °F 56 °F (1955)
Cooling Degree Days 8    
Growing Degree Days 23 (Base 50)    
Moisture  
Dew Point 68 °F    
Average Humidity 89    
Maximum Humidity 100    
Minimum Humidity 63    
Precipitation  
Precipitation 0.00 in - - ()
Sea Level Pressure  
Sea Level Pressure 30.09 in    
Wind  
Wind Speed 4 mph (WSW)    
Max Wind Speed 12 mph    
Max Gust Speed -    
Visibility 10 miles    
Events Rain    
Averages and records for this station are not official NWS values.
T = Trace of Precipitation, MM = Missing Value Source: NWS Daily Summary

Daily Weather History Graph

Daily Weather History Graph

Search for Another Location

Airport or City:

Trip Planner

Search our weather history database for the weather conditions in past years. The results will help you decide how hot, cold, wet, or windy it might be!

Date:

Astronomy

Mar. 27, 2014 Rise Set
Actual Time 6:25 AM HST 6:41 PM HST
Civil Twilight 6:03 AM HST 7:03 PM HST
Nautical Twilight 5:37 AM HST 7:29 PM HST
Astronomical Twilight 5:11 AM HST 7:55 PM HST
Moon 4:00 AM HST (3/27) 4:01 PM HST (3/27)
Length of Visible Light 12h 59m
Length of Day
12h 15m
Waning Crescent, 11% of the Moon is Illuminated
Mar 27
Waning Crescent
Mar 30
New
Apr 6
First Quarter
Apr 14
Full
Apr 21
Last Quarter

Hourly Weather History & Observations

Time (HST) Temp. Heat Index Dew Point Humidity Pressure Visibility Wind Dir Wind Speed Gust Speed Precip Events Conditions
12:44 AM 68.0 °F - 68.0 °F 100% 30.16 in 10.0 mi Calm Calm - N/A   Mostly Cloudy
12:56 AM 68.9 °F - 68.9 °F 100% 30.09 in 10.0 mi Calm Calm - N/A   Overcast
1:28 AM 69.8 °F - 69.8 °F 100% 30.14 in 10.0 mi South 3.5 mph - N/A   Mostly Cloudy
1:46 AM 69.8 °F - 69.8 °F 100% 30.14 in 10.0 mi South 3.5 mph - N/A   Overcast
1:56 AM 69.8 °F - 69.8 °F 100% 30.13 in 10.0 mi South 3.5 mph - N/A   Overcast
2:03 AM 69.8 °F - 69.8 °F 100% 30.13 in 10.0 mi South 4.6 mph - N/A   Mostly Cloudy
2:19 AM 68.0 °F - 68.0 °F 100% 30.12 in 10.0 mi Calm Calm - N/A   Scattered Clouds
2:56 AM 65.8 °F - 65.8 °F 100% 30.05 in 10.0 mi North 5.8 mph - N/A   Clear
3:56 AM 65.8 °F - 65.8 °F 100% 30.04 in 10.0 mi North 4.6 mph - N/A   Clear
4:56 AM 66.9 °F - 66.9 °F 100% 30.06 in 10.0 mi NNE 5.8 mph - N/A   Clear
5:56 AM 64.9 °F - 64.9 °F 100% 30.09 in 10.0 mi East 5.8 mph - N/A   Clear
6:56 AM 64.9 °F - 64.9 °F 100% 30.09 in 10.0 mi Calm Calm - N/A   Clear
7:56 AM 72.0 °F - 68.9 °F 90% 30.09 in 10.0 mi Calm Calm - N/A   Clear
8:56 AM 77.9 °F - 66.9 °F 69% 30.10 in 10.0 mi North 9.2 mph - N/A   Clear
9:56 AM 79.0 °F - 68.0 °F 69% 30.10 in 10.0 mi North 9.2 mph - N/A   Partly Cloudy
10:56 AM 80.6 °F 83.2 °F 68.0 °F 65% 30.17 in 10.0 mi West 10.4 mph - N/A   Mostly Cloudy
11:35 AM 78.8 °F - 69.8 °F 74% 30.16 in 10.0 mi West 9.2 mph - N/A   Mostly Cloudy
11:56 AM 79.9 °F - 68.9 °F 69% 30.09 in 10.0 mi West 11.5 mph - N/A   Scattered Clouds
12:56 PM 81.0 °F 83.8 °F 68.0 °F 65% 30.06 in 10.0 mi West 6.9 mph - N/A   Clear
1:56 PM 81.9 °F 84.8 °F 68.0 °F 63% 30.03 in 10.0 mi WNW 8.1 mph - N/A   Clear
2:56 PM 81.9 °F 85.2 °F 68.9 °F 65% 30.01 in 10.0 mi West 8.1 mph - N/A   Scattered Clouds
3:25 PM 82.4 °F 86.3 °F 69.8 °F 66% 30.07 in 10.0 mi West 8.1 mph - N/A   Mostly Cloudy
3:56 PM 70.9 °F - 66.9 °F 87% 30.02 in 4.0 mi SSE 5.8 mph - 0.00 in Rain Light Rain
4:14 PM 71.6 °F - 68.0 °F 88% 30.07 in 10.0 mi SE 3.5 mph - 0.00 in Rain Light Rain
4:36 PM 73.4 °F - 68.0 °F 83% 30.07 in 10.0 mi ESE 3.5 mph - 0.00 in   Overcast
4:47 PM 73.4 °F - 68.0 °F 83% 30.07 in 10.0 mi ESE 4.6 mph - 0.00 in   Overcast
4:56 PM 73.4 °F - 68.0 °F 83% 30.07 in 10.0 mi East 5.8 mph - N/A   Mostly Cloudy
5:56 PM 72.9 °F - 68.9 °F 87% 30.03 in 10.0 mi South 4.6 mph - N/A   Scattered Clouds
6:56 PM 70.9 °F - 70.0 °F 97% 30.05 in 10.0 mi South 4.6 mph - N/A   Mostly Cloudy
7:56 PM 71.6 °F - 69.8 °F 94% 30.12 in 10.0 mi SSW 4.6 mph - N/A   Mostly Cloudy
8:26 PM 69.8 °F - 69.8 °F 100% 30.12 in 10.0 mi Calm Calm - N/A   Scattered Clouds
8:56 PM 68.9 °F - 68.9 °F 100% 30.07 in 10.0 mi North 4.6 mph - N/A   Scattered Clouds
9:07 PM 69.8 °F - 69.8 °F 100% 30.14 in 10.0 mi North 3.5 mph - N/A   Mostly Cloudy
9:56 PM 70.0 °F - 70.0 °F 100% 30.09 in 10.0 mi Calm Calm - N/A   Mostly Cloudy
10:30 PM 69.8 °F - 69.8 °F 100% 30.15 in 10.0 mi Calm Calm - N/A   Scattered Clouds
10:56 PM 68.9 °F - 68.9 °F 100% 30.09 in 10.0 mi Calm Calm - N/A   Partly Cloudy
11:56 PM 66.9 °F - 66.9 °F 100% 30.08 in 10.0 mi ENE 3.5 mph - N/A   Clear